Home   Weather   Norwich   Past weeks
Flag for United Kingdom

Past Weather in Norwich, England, United Kingdom — Yesterday and Last 2 Weeks

Now
50 °F

Scattered clouds.


Feels Like: 46 °F
Forecast: 53 / 34 °F
Wind: 10 mph from Northwest

Location: Norwich Weather Centre

Current Time: Mar 26, 2019 at 12:36:20 pm

Latest Report: Mar 26, 2019 at 11:50 am


Visibility: N/A

Pressure: 30.51 "Hg

Humidity: 62%

Dew Point: 37 °F

Location of NorwichLocation

Past Weather in Norwich — Graph

°F

Norwich Temperature Yesterday

Maximum temperature yesterday: 50 °F (at 3:20 pm)
Minimum temperature yesterday: 36 °F (at 11:50 pm)
Average temperature yesterday: 44 °F

High & Low Weather Summary for the Past Weeks

 TemperatureHumidityPressure
High59 °F (Mar 20, 12:50 pm)100% (Mar 12, 4:20 pm)30.54 "Hg (Mar 12, 4:20 pm)
Low32 °F (Mar 26, 1:20 am)47% (Mar 23, 10:20 am)29.27 "Hg (Mar 16, 8:20 pm)
Average47 °F79%30.05 "Hg
* Reported Mar 11 11:20 am — Mar 26 11:20 am, Norwich. Weather by CustomWeather, © 2019

Note: Actual official high and low records may vary slightly from our data, if they occured in-between our weather recording intervals... More about our weather records

Advertising

Norwich Weather History for the Previous 24 Hours

Scroll right to see more
 ConditionsComfort  
Time TempWeatherWind HumidityBarometerVisibility
11:20 am
Tue, Mar 26
50 °FScattered clouds.10 mph62%30.51 "HgN/A
10:50 am50 °FScattered clouds.9 mph67%30.51 "HgN/A
10:20 am50 °FPassing clouds.9 mph67%30.51 "HgN/A
9:20 am46 °FSunny.10 mph76%30.51 "Hg10 mi
8:50 am45 °FSunny.8 mph81%30.51 "Hg10 mi
8:20 am43 °FSunny.8 mph87%30.48 "Hg10 mi
7:50 am41 °FPassing clouds.7 mph87%30.48 "HgN/A
7:20 am37 °FSunny.5 mph100%30.51 "Hg10 mi
6:50 am36 °FSunny.3 mph93%30.51 "Hg10 mi
6:20 am36 °FSunny.No wind100%30.51 "Hg10 mi
5:50 am36 °FSunny.3 mph93%30.51 "Hg10 mi
5:20 am34 °FChilly.6 mph100%30.51 "HgN/A
4:50 am32 °FChilly.5 mph100%30.51 "HgN/A
4:20 am34 °FChilly.6 mph100%30.51 "HgN/A
3:50 am32 °FChilly.6 mph100%30.51 "HgN/A
3:20 am34 °FChilly.6 mph100%30.51 "HgN/A
2:50 am32 °FChilly.6 mph100%30.54 "HgN/A
2:20 am32 °FPassing clouds.6 mph100%30.54 "HgN/A
1:50 am34 °FPassing clouds.5 mph100%30.54 "HgN/A
1:20 am32 °FChilly.6 mph100%30.54 "HgN/A
12:50 am34 °FChilly.6 mph100%30.54 "HgN/A
12:20 am34 °FChilly.7 mph93%30.54 "HgN/A
11:50 pm
Mon, Mar 25
36 °FChilly.3 mph100%30.54 "HgN/A
11:20 pm37 °FPassing clouds.6 mph93%30.54 "HgN/A
10:50 pm37 °FChilly.6 mph93%30.54 "HgN/A
10:20 pm37 °FChilly.5 mph93%30.54 "HgN/A
9:50 pm37 °FChilly.2 mph93%30.54 "HgN/A
9:20 pm41 °FPassing clouds.2 mph87%30.54 "HgN/A
8:50 pm41 °FClear.3 mph87%30.54 "Hg10 mi
8:20 pm43 °FPassing clouds.5 mph81%30.54 "HgN/A
7:50 pm45 °FPassing clouds.6 mph81%30.54 "HgN/A
7:20 pm45 °FPassing clouds.9 mph81%30.54 "HgN/A
6:50 pm46 °FPartly cloudy.8 mph71%30.51 "HgN/A
6:20 pm46 °FPartly cloudy.8 mph71%30.51 "HgN/A
5:50 pm46 °FBroken clouds.10 mph71%30.51 "HgN/A
5:20 pm46 °FBroken clouds.12 mph66%30.51 "HgN/A
4:50 pm46 °FBroken clouds.12 mph71%30.48 "HgN/A
4:20 pm48 °FBroken clouds.12 mph66%30.48 "HgN/A
3:50 pm48 °FBroken clouds.14 mph66%30.48 "HgN/A
3:20 pm50 °FPartly sunny.16 mph62%30.48 "HgN/A
2:50 pm48 °FPartly sunny.18 mph62%30.45 "HgN/A
2:20 pm48 °FPartly sunny.16 mph66%30.45 "HgN/A
1:50 pm48 °FPartly sunny.16 mph66%30.45 "HgN/A
1:20 pm48 °FPartly sunny.18 mph66%30.45 "HgN/A
12:50 pm48 °FPartly sunny.17 mph66%30.45 "HgN/A
Weather by CustomWeather, © 2019

See weather overview